Regional Weather Roundup
Issued by NWS Raleigh/Durham, NC

Home | Current Version | Previous Version | Text Only | Print | Product List | Glossary On
Versions: 1 2 3 4 5 6 7 8 9 10 11 12 13 14 15 16 17 18 19 20 21 22 23 24 25 26 27 28
000
ASUS42 KRAH 171610
RWRRAH
NORTH CAROLINA WEATHER ROUNDUP
NATIONAL WEATHER SERVICE RALEIGH NC
1100 AM EST SUN DEC 17 2017

NOTE: "FAIR" INDICATES FEW OR NO CLOUDS BELOW 12,000 FEET WITH NO
SIGNIFICANT WEATHER AND/OR OBSTRUCTIONS TO VISIBILITY.

NCZ001-053-055-056-065-067-171700-
WESTERN NORTH CAROLINA

CITY           SKY/WX    TMP DP  RH WIND       PRES   REMARKS
ASHEVILLE      CLOUDY    34  27  75 CALM      30.25F
JEFFERSON      CLOUDY    39  15  37 CALM      30.22F
MORGANTON      CLOUDY    37  29  73 CALM      30.29F
HICKORY        CLOUDY    38  30  73 NE3       30.25F
RUTHERFORDTON  NOT AVBL
MOUNT AIRY     CLOUDY    41  27  57 NE5       30.29F
BOONE          CLOUDY    38  20  50 CALM      30.23F
$$

NCZ021-022-025-041-071-084-088-171700-
CENTRAL NORTH CAROLINA

CITY           SKY/WX    TMP DP  RH WIND       PRES   REMARKS
CHARLOTTE      PTSUNNY   44  31  60 S6        30.29F
GREENSBORO     CLOUDY    45  30  55 NE3       30.26R
WINSTON-SALEM  CLOUDY    41  28  60 S3        30.28S
RALEIGH-DURHAM PTSUNNY   44  30  57 SW7       30.29R
FORT BRAGG     MOSUNNY   48  30  48 CALM      30.29F
FAYETTEVILLE   MOSUNNY   48  32  53 CALM      30.30S
BURLINGTON     CLOUDY    42  31  64 SW6       30.30R
LAURINBURG     SUNNY     51  32  48 SW6       30.32S
$$

NCZ011-015-027-028-043-044-047-080-103-171700-
NORTHEASTERN NORTH CAROLINA

CITY           SKY/WX    TMP DP  RH WIND       PRES   REMARKS
ROCKY MT-WILSO MOSUNNY   45  32  60 SW3       30.29F
GREENVILLE     MOSUNNY   46  32  57 CALM      30.28F
WASHINGTON     MOSUNNY   47  32  55 SW5       30.30S
ELIZABETH CITY MOSUNNY   46  35  65 CALM      30.28F
MANTEO         CLOUDY    44  34  68 SW3       30.30F
CAPE HATTERAS  CLOUDY    52  32  46 CALM      30.29F
$$

NCZ078-087-090-091-093-098-101-171700-
SOUTHEASTERN NORTH CAROLINA

CITY           SKY/WX    TMP DP  RH WIND       PRES   REMARKS
LUMBERTON      SUNNY     50  34  54 VRB5      30.31F
GOLDSBORO      MOSUNNY   47  33  58 S6        30.28S
KINSTON        MOSUNNY   48  30  49 SW8       30.30F
KENANSVILLE    MOSUNNY   46  34  61 SW3       30.31S
NEW BERN       MOSUNNY   50  32  50 SW5       30.31F
CHERRY POINT   MOSUNNY   52  35  52 SW7       30.31F
BEAUFORT       CLOUDY    51  34  52 SW6       30.31F
JACKSONVILLE   MOSUNNY   49  39  68 E3        30.31F
WILMINGTON     MOSUNNY   54  33  45 SE6       30.31F
$$





USA.gov is the U.S. government's official web portal to all federal, state and local government web resources and services.